Time,TemperatureF,DewpointF,PressureIn,WindDirection,WindDirectionDegrees,WindSpeedMPH,WindSpeedGustMPH,Humidity,HourlyPrecipIn,Conditions,Clouds,dailyrainin,SoftwareType,DateUTC
2013-02-11 00:00:00,29.2,23.5,30.31,SE,135,0.0,0.0,79,0.00,,,0.10,WUHU216HW,2013-02-11 05:00:00,
2013-02-11 00:05:00,29.3,23.7,30.31,SE,135,0.0,0.0,79,0.00,,,0.00,WUHU216HW,2013-02-11 05:05:00,
2013-02-11 00:10:00,29.3,23.7,30.30,SE,135,0.0,0.0,79,0.00,,,0.00,WUHU216HW,2013-02-11 05:10:00,
2013-02-11 00:15:00,29.5,24.1,30.31,SE,135,0.0,0.0,80,0.00,,,0.00,WUHU216HW,2013-02-11 05:15:00,
2013-02-11 00:20:00,29.7,24.3,30.31,SE,135,0.0,0.0,80,0.00,,,0.00,WUHU216HW,2013-02-11 05:20:00,
2013-02-11 00:25:00,29.7,24.3,30.30,SE,135,0.0,0.0,80,0.00,,,0.00,WUHU216HW,2013-02-11 05:25:00,
2013-02-11 00:30:00,29.9,24.5,30.30,SE,135,0.0,0.0,80,0.00,,,0.00,WUHU216HW,2013-02-11 05:30:00,
2013-02-11 00:35:00,29.9,24.8,30.30,SE,135,0.0,0.0,81,0.00,,,0.00,WUHU216HW,2013-02-11 05:35:00,
2013-02-11 00:40:00,30.1,24.9,30.30,SE,135,0.0,0.0,81,0.00,,,0.00,WUHU216HW,2013-02-11 05:40:00,
2013-02-11 00:45:00,30.1,24.9,30.29,SE,135,0.4,0.4,81,0.00,,,0.00,WUHU216HW,2013-02-11 05:45:00,
2013-02-11 00:50:00,30.2,25.1,30.29,SE,135,0.0,0.4,81,0.00,,,0.00,WUHU216HW,2013-02-11 05:50:00,
2013-02-11 00:55:00,30.4,25.3,30.29,SE,135,0.0,0.4,81,0.00,,,0.00,WUHU216HW,2013-02-11 05:55:00,
2013-02-11 01:00:00,30.6,25.7,30.28,SE,135,0.0,0.4,82,0.00,,,0.00,WUHU216HW,2013-02-11 06:00:00,
2013-02-11 01:05:00,30.8,25.9,30.28,SE,135,0.0,0.4,82,0.00,,,0.00,WUHU216HW,2013-02-11 06:05:00,
2013-02-11 01:10:00,31.0,26.1,30.28,SE,135,0.0,0.4,82,0.00,,,0.00,WUHU216HW,2013-02-11 06:10:00,
2013-02-11 01:15:00,31.1,26.3,30.27,SE,135,0.0,0.7,82,0.00,,,0.00,WUHU216HW,2013-02-11 06:15:00,
2013-02-11 01:20:00,31.3,26.5,30.27,SE,135,0.0,0.7,82,0.00,,,0.00,WUHU216HW,2013-02-11 06:20:00,
2013-02-11 01:25:00,31.3,26.5,30.26,SE,135,0.0,0.7,82,0.00,,,0.00,WUHU216HW,2013-02-11 06:25:00,
2013-02-11 01:30:00,31.5,26.6,30.26,SE,135,0.9,0.9,82,0.00,,,0.00,WUHU216HW,2013-02-11 06:30:00,
2013-02-11 01:35:00,31.7,26.8,30.26,SSW,203,0.9,2.5,82,0.00,,,0.00,WUHU216HW,2013-02-11 06:35:00,
2013-02-11 01:40:00,32.0,27.2,30.26,South,180,0.0,2.5,82,0.00,,,0.00,WUHU216HW,2013-02-11 06:40:00,
2013-02-11 01:45:00,32.2,27.4,30.26,South,180,2.5,2.5,82,0.00,,,0.00,WUHU216HW,2013-02-11 06:45:00,
2013-02-11 01:50:00,32.4,27.3,30.26,SSE,158,0.4,2.5,81,0.00,,,0.00,WUHU216HW,2013-02-11 06:50:00,
2013-02-11 01:55:00,32.8,27.5,30.27,SSW,203,1.1,2.5,81,0.00,,,0.00,WUHU216HW,2013-02-11 06:55:00,
2013-02-11 02:00:00,32.9,27.7,30.27,SSW,203,0.4,1.6,81,0.00,,,0.00,WUHU216HW,2013-02-11 07:00:00,
2013-02-11 02:05:00,33.1,27.9,30.26,SSW,203,0.4,1.6,81,0.00,,,0.00,WUHU216HW,2013-02-11 07:05:00,
2013-02-11 02:10:00,33.3,27.8,30.26,South,180,0.4,1.1,80,0.00,,,0.00,WUHU216HW,2013-02-11 07:10:00,
2013-02-11 02:15:00,33.5,27.9,30.25,SE,135,1.1,1.6,80,0.00,,,0.00,WUHU216HW,2013-02-11 07:15:00,
2013-02-11 02:20:00,33.5,27.9,30.25,SE,135,0.2,1.6,80,0.00,,,0.00,WUHU216HW,2013-02-11 07:20:00,
2013-02-11 02:25:00,33.5,27.9,30.25,South,180,0.7,1.1,80,0.00,,,0.00,WUHU216HW,2013-02-11 07:25:00,
2013-02-11 02:30:00,33.7,28.1,30.24,South,180,0.4,0.9,80,0.00,,,0.00,WUHU216HW,2013-02-11 07:30:00,
2013-02-11 02:35:00,33.7,28.1,30.24,SE,135,1.3,1.3,80,0.00,,,0.00,WUHU216HW,2013-02-11 07:35:00,
2013-02-11 02:40:00,33.8,28.3,30.24,South,180,0.0,1.3,80,0.00,,,0.00,WUHU216HW,2013-02-11 07:40:00,
2013-02-11 02:45:00,34.0,28.4,30.23,SSE,158,0.0,1.3,80,0.00,,,0.00,WUHU216HW,2013-02-11 07:45:00,
2013-02-11 02:50:00,34.0,28.4,30.23,SSE,158,0.4,1.1,80,0.00,,,0.00,WUHU216HW,2013-02-11 07:50:00,
2013-02-11 02:55:00,34.0,28.4,30.22,SE,135,0.4,1.1,80,0.00,,,0.00,WUHU216HW,2013-02-11 07:55:00,
2013-02-11 03:00:00,34.0,28.4,30.22,SSW,203,0.0,1.8,80,0.00,,,0.00,WUHU216HW,2013-02-11 08:00:00,
2013-02-11 03:05:00,34.0,28.4,30.22,SSW,203,0.0,1.8,80,0.00,,,0.00,WUHU216HW,2013-02-11 08:05:00,
2013-02-11 03:10:00,34.0,28.4,30.22,SE,135,0.0,0.4,80,0.00,,,0.00,WUHU216HW,2013-02-11 08:10:00,
2013-02-11 03:15:00,34.0,28.4,30.22,South,180,0.0,0.7,80,0.00,,,0.00,WUHU216HW,2013-02-11 08:15:00,
2013-02-11 03:20:00,34.0,28.7,30.21,SSE,158,0.0,0.7,81,0.00,,,0.00,WUHU216HW,2013-02-11 08:20:00,
2013-02-11 03:25:00,34.0,28.7,30.21,SSE,158,0.0,0.2,81,0.00,,,0.00,WUHU216HW,2013-02-11 08:25:00,
2013-02-11 03:30:00,34.0,28.7,30.21,SSE,158,0.0,0.4,81,0.00,,,0.00,WUHU216HW,2013-02-11 08:30:00,
2013-02-11 03:35:00,34.0,28.7,30.21,South,180,0.0,0.4,81,0.00,,,0.00,WUHU216HW,2013-02-11 08:35:00,
2013-02-11 03:40:00,34.0,29.0,30.21,South,180,0.7,0.7,82,0.00,,,0.00,WUHU216HW,2013-02-11 08:40:00,
2013-02-11 03:45:00,34.0,28.7,30.20,South,180,0.9,1.1,81,0.00,,,0.00,WUHU216HW,2013-02-11 08:45:00,
2013-02-11 03:50:00,34.0,29.0,30.20,South,180,0.9,1.3,82,0.00,,,0.00,WUHU216HW,2013-02-11 08:50:00,
2013-02-11 03:55:00,34.2,29.2,30.19,SSE,158,0.0,2.5,82,0.00,,,0.00,WUHU216HW,2013-02-11 08:55:00,
2013-02-11 04:00:00,34.4,29.7,30.19,South,180,0.4,3.1,83,0.00,,,0.00,WUHU216HW,2013-02-11 09:00:00,
2013-02-11 04:05:00,34.7,30.3,30.19,South,180,0.7,3.1,84,0.00,,,0.00,WUHU216HW,2013-02-11 09:05:00,
2013-02-11 04:10:00,34.9,30.5,30.19,South,180,0.4,2.2,84,0.00,,,0.00,WUHU216HW,2013-02-11 09:10:00,
2013-02-11 04:15:00,34.9,30.5,30.18,South,180,1.8,2.2,84,0.00,,,0.00,WUHU216HW,2013-02-11 09:15:00,
2013-02-11 04:20:00,35.1,30.7,30.18,SSE,158,0.4,2.2,84,0.00,,,0.00,WUHU216HW,2013-02-11 09:20:00,
2013-02-11 04:25:00,35.3,30.9,30.18,SSE,158,0.2,2.9,84,0.00,,,0.00,WUHU216HW,2013-02-11 09:25:00,
2013-02-11 04:30:00,35.5,31.1,30.17,South,180,0.9,2.9,84,0.00,,,0.00,WUHU216HW,2013-02-11 09:30:00,
2013-02-11 04:35:00,35.5,31.1,30.17,ESE,113,0.4,1.3,84,0.00,,,0.00,WUHU216HW,2013-02-11 09:35:00,
2013-02-11 04:40:00,35.6,31.2,30.17,SSE,158,0.0,1.3,84,0.00,,,0.00,WUHU216HW,2013-02-11 09:40:00,
2013-02-11 04:45:00,35.6,31.2,30.17,SE,135,0.4,1.8,84,0.00,,,0.00,WUHU216HW,2013-02-11 09:45:00,
2013-02-11 04:50:00,35.5,31.1,30.17,SSE,158,0.0,1.8,84,0.00,,,0.00,WUHU216HW,2013-02-11 09:50:00,
2013-02-11 04:55:00,35.6,31.2,30.17,SE,135,0.2,0.4,84,0.00,,,0.00,WUHU216HW,2013-02-11 09:55:00,
2013-02-11 05:00:00,35.6,31.2,30.16,ESE,113,0.0,0.4,84,0.00,,,0.00,WUHU216HW,2013-02-11 10:00:00,
2013-02-11 05:05:00,35.5,31.3,30.16,ESE,113,0.0,0.4,85,0.00,,,0.00,WUHU216HW,2013-02-11 10:05:00,
2013-02-11 05:10:00,35.6,31.2,30.15,ESE,113,0.2,0.4,84,0.00,,,0.00,WUHU216HW,2013-02-11 10:10:00,
2013-02-11 05:15:00,35.6,31.2,30.15,ESE,113,0.4,1.1,84,0.00,,,0.00,WUHU216HW,2013-02-11 10:15:00,
2013-02-11 05:20:00,35.6,31.5,30.15,ESE,113,0.2,1.1,85,0.00,,,0.00,WUHU216HW,2013-02-11 10:20:00,
2013-02-11 05:25:00,35.6,31.5,30.14,ESE,113,0.4,0.7,85,0.00,,,0.00,WUHU216HW,2013-02-11 10:25:00,
2013-02-11 05:30:00,35.6,31.5,30.14,ESE,113,0.0,0.7,85,0.00,,,0.00,WUHU216HW,2013-02-11 10:30:00,
2013-02-11 05:35:00,35.6,31.5,30.13,East,90,0.2,0.9,85,0.00,,,0.00,WUHU216HW,2013-02-11 10:35:00,
2013-02-11 05:40:00,35.6,31.5,30.13,East,90,0.4,0.9,85,0.00,,,0.00,WUHU216HW,2013-02-11 10:40:00,
2013-02-11 05:45:00,35.6,31.5,30.12,East,90,0.9,0.9,85,0.00,,,0.00,WUHU216HW,2013-02-11 10:45:00,
2013-02-11 05:50:00,35.6,31.5,30.12,East,90,0.0,1.1,85,0.00,,,0.00,WUHU216HW,2013-02-11 10:50:00,
2013-02-11 05:55:00,35.6,31.8,30.13,ENE,68,0.0,1.1,86,0.00,,,0.00,WUHU216HW,2013-02-11 10:55:00,
2013-02-11 06:00:00,35.6,31.8,30.13,SE,135,0.0,0.9,86,0.00,,,0.00,WUHU216HW,2013-02-11 11:00:00,
2013-02-11 06:05:00,35.8,32.2,30.13,SE,135,0.0,0.9,87,0.00,,,0.00,WUHU216HW,2013-02-11 11:05:00,
2013-02-11 06:10:00,35.8,32.2,30.13,East,90,0.7,0.7,87,0.00,,,0.00,WUHU216HW,2013-02-11 11:10:00,
2013-02-11 06:15:00,35.8,32.2,30.12,SSE,158,0.4,1.6,87,0.00,,,0.00,WUHU216HW,2013-02-11 11:15:00,
2013-02-11 06:20:00,36.0,32.4,30.12,SSE,158,0.4,1.6,87,0.01,,,0.01,WUHU216HW,2013-02-11 11:20:00,
2013-02-11 06:25:00,36.0,32.8,30.12,SE,135,0.0,1.1,88,0.02,,,0.02,WUHU216HW,2013-02-11 11:25:00,
2013-02-11 06:30:00,36.2,33.0,30.11,SE,135,0.7,1.1,88,0.02,,,0.02,WUHU216HW,2013-02-11 11:30:00,
2013-02-11 06:35:00,36.5,33.3,30.11,ESE,113,0.7,2.2,88,0.02,,,0.02,WUHU216HW,2013-02-11 11:35:00,
2013-02-11 06:40:00,36.7,33.5,30.11,South,180,0.7,2.2,88,0.02,,,0.02,WUHU216HW,2013-02-11 11:40:00,
2013-02-11 06:45:00,36.7,33.5,30.11,SSW,203,0.2,1.6,88,0.03,,,0.04,WUHU216HW,2013-02-11 11:45:00,
2013-02-11 06:50:00,36.9,33.7,30.11,SE,135,1.3,1.6,88,0.04,,,0.04,WUHU216HW,2013-02-11 11:50:00,
2013-02-11 06:55:00,36.9,33.7,30.10,SSE,158,0.4,1.8,88,0.04,,,0.04,WUHU216HW,2013-02-11 11:55:00,
2013-02-11 07:00:00,37.1,34.1,30.10,SSW,203,0.4,1.8,89,0.04,,,0.04,WUHU216HW,2013-02-11 12:00:00,
2013-02-11 07:05:00,37.1,33.9,30.09,SSE,158,0.0,1.3,88,0.05,,,0.06,WUHU216HW,2013-02-11 12:05:00,
2013-02-11 07:10:00,37.1,33.9,30.09,SE,135,0.4,1.3,88,0.06,,,0.06,WUHU216HW,2013-02-11 12:10:00,
2013-02-11 07:15:00,37.1,33.9,30.08,ESE,113,0.0,0.9,88,0.06,,,0.06,WUHU216HW,2013-02-11 12:15:00,
2013-02-11 07:20:00,37.1,33.9,30.07,ESE,113,0.0,1.1,88,0.04,,,0.06,WUHU216HW,2013-02-11 12:20:00,
2013-02-11 07:25:00,37.1,33.9,30.07,ESE,113,0.0,1.1,88,0.04,,,0.06,WUHU216HW,2013-02-11 12:25:00,
2013-02-11 07:30:00,37.1,34.1,30.07,ESE,113,0.4,0.7,89,0.05,,,0.07,WUHU216HW,2013-02-11 12:30:00,
2013-02-11 07:35:00,37.1,33.9,30.06,ESE,113,0.7,0.7,88,0.06,,,0.09,WUHU216HW,2013-02-11 12:35:00,
2013-02-11 07:40:00,37.1,33.9,30.05,ESE,113,0.4,1.3,88,0.06,,,0.09,WUHU216HW,2013-02-11 12:40:00,
2013-02-11 07:45:00,37.1,33.9,30.05,East,90,0.4,1.8,88,0.04,,,0.09,WUHU216HW,2013-02-11 12:45:00,
2013-02-11 07:50:00,37.1,33.9,30.05,ESE,113,0.4,1.8,88,0.05,,,0.09,WUHU216HW,2013-02-11 12:50:00,
2013-02-11 07:55:00,37.3,34.3,30.05,SE,135,0.0,1.6,89,0.06,,,0.11,WUHU216HW,2013-02-11 12:55:00,
2013-02-11 08:00:00,37.4,34.7,30.04,ENE,68,0.9,2.5,90,0.05,,,0.11,WUHU216HW,2013-02-11 13:00:00,
2013-02-11 08:05:00,37.8,35.1,30.03,SSE,158,0.4,2.5,90,0.05,,,0.11,WUHU216HW,2013-02-11 13:05:00,
2013-02-11 08:10:00,37.8,35.1,30.03,SSE,158,2.2,2.2,90,0.06,,,0.13,WUHU216HW,2013-02-11 13:10:00,
2013-02-11 08:15:00,38.2,35.5,30.02,ESE,113,0.9,2.2,90,0.06,,,0.13,WUHU216HW,2013-02-11 13:15:00,
2013-02-11 08:20:00,38.2,35.5,30.02,ENE,68,1.3,2.2,90,0.07,,,0.13,WUHU216HW,2013-02-11 13:20:00,
2013-02-11 08:25:00,38.3,35.6,30.01,ENE,68,1.3,2.2,90,0.07,,,0.15,WUHU216HW,2013-02-11 13:25:00,
2013-02-11 08:30:00,38.5,35.8,30.01,ENE,68,0.9,3.4,90,0.09,,,0.17,WUHU216HW,2013-02-11 13:30:00,
2013-02-11 08:35:00,38.7,36.0,30.00,ENE,68,1.1,3.4,90,0.09,,,0.18,WUHU216HW,2013-02-11 13:35:00,
2013-02-11 08:40:00,38.9,36.2,30.00,ENE,68,1.1,2.9,90,0.10,,,0.19,WUHU216HW,2013-02-11 13:40:00,
2013-02-11 08:45:00,39.1,36.4,30.00,SSE,158,1.1,2.5,90,0.11,,,0.20,WUHU216HW,2013-02-11 13:45:00,
2013-02-11 08:50:00,39.2,36.5,29.99,ESE,113,3.1,3.1,90,0.11,,,0.22,WUHU216HW,2013-02-11 13:50:00,
2013-02-11 08:55:00,39.4,36.7,29.99,ESE,113,0.7,3.1,90,0.12,,,0.23,WUHU216HW,2013-02-11 13:55:00,
2013-02-11 09:00:00,39.6,36.9,29.98,SW,225,1.6,3.1,90,0.13,,,0.24,WUHU216HW,2013-02-11 14:00:00,
2013-02-11 09:05:00,39.6,36.9,29.98,South,180,1.8,3.1,90,0.15,,,0.27,WUHU216HW,2013-02-11 14:05:00,
2013-02-11 09:10:00,40.0,37.5,29.98,SSE,158,2.2,2.2,91,0.16,,,0.29,WUHU216HW,2013-02-11 14:10:00,
2013-02-11 09:15:00,40.1,37.7,29.97,SSW,203,0.7,3.4,91,0.18,,,0.31,WUHU216HW,2013-02-11 14:15:00,
2013-02-11 09:20:00,40.3,37.9,29.97,SSW,203,2.0,3.4,91,0.18,,,0.33,WUHU216HW,2013-02-11 14:20:00,
2013-02-11 09:25:00,40.5,38.1,29.96,SE,135,1.3,3.4,91,0.19,,,0.35,WUHU216HW,2013-02-11 14:25:00,
2013-02-11 09:30:00,40.5,38.1,29.96,South,180,1.8,4.5,91,0.19,,,0.36,WUHU216HW,2013-02-11 14:30:00,
2013-02-11 09:35:00,40.9,38.7,29.96,South,180,2.0,4.5,92,0.19,,,0.37,WUHU216HW,2013-02-11 14:35:00,
2013-02-11 09:40:00,41.2,39.1,29.95,SSE,158,2.2,3.6,92,0.18,,,0.38,WUHU216HW,2013-02-11 14:40:00,
2013-02-11 09:45:00,41.6,39.7,29.95,SSE,158,2.5,4.0,93,0.18,,,0.39,WUHU216HW,2013-02-11 14:45:00,
2013-02-11 09:50:00,41.9,40.1,29.96,SSW,203,1.6,5.1,93,0.18,,,0.40,WUHU216HW,2013-02-11 14:50:00,
2013-02-11 09:55:00,42.1,40.2,29.96,SSW,203,2.9,5.1,93,0.19,,,0.42,WUHU216HW,2013-02-11 14:55:00,
2013-02-11 10:00:00,42.1,40.2,29.96,South,180,0.7,3.6,93,0.18,,,0.44,WUHU216HW,2013-02-11 15:00:00,
2013-02-11 10:05:00,42.1,40.0,29.96,SSW,203,0.4,3.6,92,0.19,,,0.47,WUHU216HW,2013-02-11 15:05:00,
2013-02-11 10:10:00,42.1,40.0,29.95,SW,225,1.8,3.1,92,0.19,,,0.48,WUHU216HW,2013-02-11 15:10:00,
2013-02-11 10:15:00,42.3,40.4,29.95,SSE,158,2.2,6.3,93,0.20,,,0.51,WUHU216HW,2013-02-11 15:15:00,
2013-02-11 10:20:00,42.1,40.0,29.94,SW,225,0.9,6.3,92,0.17,,,0.52,WUHU216HW,2013-02-11 15:20:00,
2013-02-11 10:25:00,42.1,40.0,29.94,SW,225,1.1,2.5,92,0.18,,,0.53,WUHU216HW,2013-02-11 15:25:00,
2013-02-11 10:30:00,42.1,40.0,29.94,SW,225,0.4,3.4,92,0.19,,,0.55,WUHU216HW,2013-02-11 15:30:00,
2013-02-11 10:35:00,42.1,40.0,29.94,West,270,3.4,3.4,92,0.19,,,0.56,WUHU216HW,2013-02-11 15:35:00,
2013-02-11 10:40:00,42.1,40.0,29.93,SW,225,3.4,3.4,92,0.19,,,0.57,WUHU216HW,2013-02-11 15:40:00,
2013-02-11 10:45:00,42.3,40.1,29.93,SSE,158,3.4,3.8,92,0.19,,,0.58,WUHU216HW,2013-02-11 15:45:00,
2013-02-11 10:50:00,42.5,40.3,29.93,SW,225,2.0,4.7,92,0.17,,,0.58,WUHU216HW,2013-02-11 15:50:00,
2013-02-11 10:55:00,42.7,40.8,29.93,WSW,248,4.0,5.6,93,0.17,,,0.59,WUHU216HW,2013-02-11 15:55:00,
2013-02-11 11:00:00,42.8,41.0,29.93,SW,225,1.6,5.6,93,0.11,,,0.59,WUHU216HW,2013-02-11 16:00:00,
2013-02-11 11:05:00,42.8,41.0,29.93,South,180,3.4,6.3,93,0.10,,,0.60,WUHU216HW,2013-02-11 16:05:00,
2013-02-11 11:10:00,43.0,41.1,29.93,WSW,248,3.6,6.3,93,0.09,,,0.60,WUHU216HW,2013-02-11 16:10:00,
2013-02-11 11:15:00,42.8,41.0,29.92,SE,135,1.1,5.1,93,0.08,,,0.60,WUHU216HW,2013-02-11 16:15:00,
2013-02-11 11:20:00,43.0,41.1,29.92,South,180,2.0,6.3,93,0.06,,,0.60,WUHU216HW,2013-02-11 16:20:00,
2013-02-11 11:25:00,43.0,41.1,29.91,SSW,203,4.7,6.3,93,0.06,,,0.61,WUHU216HW,2013-02-11 16:25:00,
2013-02-11 11:30:00,43.2,41.3,29.90,South,180,2.0,4.7,93,0.05,,,0.61,WUHU216HW,2013-02-11 16:30:00,
2013-02-11 11:35:00,43.0,41.1,29.89,South,180,1.1,4.7,93,0.04,,,0.61,WUHU216HW,2013-02-11 16:35:00,
2013-02-11 11:40:00,43.0,41.1,29.89,SW,225,1.8,5.6,93,0.03,,,0.61,WUHU216HW,2013-02-11 16:40:00,
2013-02-11 11:45:00,42.8,41.0,29.89,SW,225,2.0,5.6,93,0.03,,,0.61,WUHU216HW,2013-02-11 16:45:00,
2013-02-11 11:50:00,42.8,41.0,29.89,SSE,158,0.9,4.5,93,0.02,,,0.61,WUHU216HW,2013-02-11 16:50:00,
2013-02-11 11:55:00,42.8,41.0,29.88,North,0,0.7,4.5,93,0.03,,,0.62,WUHU216HW,2013-02-11 16:55:00,
2013-02-11 12:00:00,42.8,41.0,29.88,SSE,158,0.0,3.4,93,0.02,,,0.62,WUHU216HW,2013-02-11 17:00:00,
2013-02-11 12:05:00,42.7,40.8,29.87,SW,225,0.9,2.5,93,0.02,,,0.62,WUHU216HW,2013-02-11 17:05:00,
2013-02-11 12:10:00,42.7,40.8,29.87,SSE,158,0.2,2.5,93,0.02,,,0.62,WUHU216HW,2013-02-11 17:10:00,
2013-02-11 12:15:00,42.5,40.6,29.87,SSW,203,0.7,2.0,93,0.02,,,0.62,WUHU216HW,2013-02-11 17:15:00,
2013-02-11 12:20:00,42.5,40.6,29.86,SW,225,1.1,1.1,93,0.01,,,0.62,WUHU216HW,2013-02-11 17:20:00,
2013-02-11 12:25:00,42.5,40.6,29.86,SSE,158,0.0,1.1,93,0.01,,,0.62,WUHU216HW,2013-02-11 17:25:00,
2013-02-11 12:30:00,42.5,40.6,29.85,SSW,203,1.3,1.3,93,0.01,,,0.62,WUHU216HW,2013-02-11 17:30:00,
2013-02-11 12:35:00,42.3,40.4,29.85,SSE,158,0.0,1.3,93,0.01,,,0.62,WUHU216HW,2013-02-11 17:35:00,
2013-02-11 12:40:00,42.3,40.4,29.85,SSE,158,0.0,1.3,93,0.01,,,0.62,WUHU216HW,2013-02-11 17:40:00,
2013-02-11 12:45:00,42.3,40.4,29.84,SSE,158,0.0,0.4,93,0.01,,,0.62,WUHU216HW,2013-02-11 17:45:00,
2013-02-11 12:50:00,42.5,40.6,29.84,SSE,158,0.0,0.0,93,0.00,,,0.62,WUHU216HW,2013-02-11 17:50:00,
2013-02-11 12:55:00,42.3,40.4,29.83,SSE,158,0.0,0.4,93,0.00,,,0.62,WUHU216HW,2013-02-11 17:55:00,
2013-02-11 13:00:00,42.5,40.6,29.82,SSE,158,0.0,0.4,93,0.00,,,0.62,WUHU216HW,2013-02-11 18:00:00,
2013-02-11 13:05:00,42.5,40.6,29.82,SSE,158,0.0,0.4,93,0.00,,,0.62,WUHU216HW,2013-02-11 18:05:00,
2013-02-11 13:10:00,42.5,40.6,29.81,SSE,158,0.0,0.4,93,0.00,,,0.62,WUHU216HW,2013-02-11 18:10:00,
2013-02-11 13:15:00,42.7,40.8,29.81,SSE,158,0.0,0.0,93,0.00,,,0.62,WUHU216HW,2013-02-11 18:15:00,
2013-02-11 13:20:00,42.7,40.8,29.80,SSE,158,0.0,0.2,93,0.00,,,0.62,WUHU216HW,2013-02-11 18:20:00,
2013-02-11 13:25:00,42.8,41.0,29.80,South,180,0.4,0.4,93,0.00,,,0.62,WUHU216HW,2013-02-11 18:25:00,
2013-02-11 13:30:00,42.8,41.0,29.78,South,180,1.1,1.1,93,0.00,,,0.62,WUHU216HW,2013-02-11 18:30:00,
2013-02-11 13:35:00,42.8,41.0,29.79,South,180,1.1,1.1,93,0.00,,,0.62,WUHU216HW,2013-02-11 18:35:00,
2013-02-11 13:40:00,43.0,41.1,29.79,SSW,203,0.9,1.3,93,0.00,,,0.62,WUHU216HW,2013-02-11 18:40:00,
2013-02-11 13:45:00,43.0,41.1,29.78,SSW,203,0.0,1.3,93,0.00,,,0.62,WUHU216HW,2013-02-11 18:45:00,
2013-02-11 13:50:00,43.4,41.5,29.78,South,180,0.2,0.9,93,0.00,,,0.62,WUHU216HW,2013-02-11 18:50:00,
2013-02-11 13:55:00,43.4,41.5,29.78,SSW,203,1.1,1.3,93,0.00,,,0.62,WUHU216HW,2013-02-11 18:55:00,
2013-02-11 14:00:00,43.6,41.7,29.77,SSW,203,0.4,1.3,93,0.00,,,0.62,WUHU216HW,2013-02-11 19:00:00,
2013-02-11 14:05:00,43.6,41.7,29.77,SSW,203,0.9,1.1,93,0.00,,,0.62,WUHU216HW,2013-02-11 19:05:00,
2013-02-11 14:10:00,43.4,41.5,29.77,SSW,203,0.0,0.9,93,0.00,,,0.62,WUHU216HW,2013-02-11 19:10:00,
2013-02-11 14:15:00,43.4,41.5,29.77,South,180,0.0,0.0,93,0.00,,,0.62,WUHU216HW,2013-02-11 19:15:00,
2013-02-11 14:20:00,43.4,41.5,29.77,SW,225,0.0,1.1,93,0.01,,,0.63,WUHU216HW,2013-02-11 19:20:00,
2013-02-11 14:25:00,43.4,41.5,29.77,South,180,0.0,1.8,93,0.01,,,0.63,WUHU216HW,2013-02-11 19:25:00,
2013-02-11 14:30:00,43.2,41.3,29.77,West,270,1.8,2.0,93,0.01,,,0.63,WUHU216HW,2013-02-11 19:30:00,
2013-02-11 14:35:00,43.2,41.3,29.76,SSE,158,0.4,2.0,93,0.01,,,0.63,WUHU216HW,2013-02-11 19:35:00,
2013-02-11 14:40:00,42.8,41.0,29.76,WNW,293,0.0,1.8,93,0.01,,,0.63,WUHU216HW,2013-02-11 19:40:00,
2013-02-11 14:45:00,42.8,41.0,29.76,WSW,248,0.4,2.0,93,0.01,,,0.63,WUHU216HW,2013-02-11 19:45:00,
2013-02-11 14:50:00,42.8,41.0,29.76,SW,225,0.4,2.0,93,0.01,,,0.63,WUHU216HW,2013-02-11 19:50:00,
2013-02-11 14:55:00,42.8,41.0,29.77,West,270,1.6,1.6,93,0.01,,,0.63,WUHU216HW,2013-02-11 19:55:00,
2013-02-11 15:00:00,42.7,40.8,29.76,West,270,0.9,1.6,93,0.01,,,0.63,WUHU216HW,2013-02-11 20:00:00,
2013-02-11 15:05:00,42.5,40.6,29.76,WSW,248,0.0,1.6,93,0.01,,,0.63,WUHU216HW,2013-02-11 20:05:00,
2013-02-11 15:10:00,42.5,40.6,29.76,SSW,203,0.0,0.9,93,0.01,,,0.63,WUHU216HW,2013-02-11 20:10:00,
2013-02-11 15:15:00,42.7,40.8,29.75,SSW,203,0.0,0.0,93,0.00,,,0.63,WUHU216HW,2013-02-11 20:15:00,
2013-02-11 15:20:00,42.7,40.8,29.74,SSE,158,0.0,0.0,93,0.00,,,0.63,WUHU216HW,2013-02-11 20:20:00,
2013-02-11 15:25:00,42.7,40.8,29.74,North,0,0.0,0.0,93,0.00,,,0.63,WUHU216HW,2013-02-11 20:25:00,
2013-02-11 15:30:00,42.7,40.8,29.74,SE,135,0.4,0.4,93,0.00,,,0.63,WUHU216HW,2013-02-11 20:30:00,
2013-02-11 15:35:00,42.7,40.8,29.73,SE,135,0.2,0.4,93,0.00,,,0.63,WUHU216HW,2013-02-11 20:35:00,
2013-02-11 15:40:00,42.8,41.0,29.73,South,180,0.4,0.4,93,0.00,,,0.63,WUHU216HW,2013-02-11 20:40:00,
2013-02-11 15:45:00,42.8,41.0,29.72,South,180,0.4,0.4,93,0.00,,,0.63,WUHU216HW,2013-02-11 20:45:00,
2013-02-11 15:50:00,42.7,40.8,29.72,SE,135,0.0,0.4,93,0.00,,,0.63,WUHU216HW,2013-02-11 20:50:00,
2013-02-11 15:55:00,42.5,40.6,29.71,SSE,158,0.0,0.4,93,0.00,,,0.63,WUHU216HW,2013-02-11 20:55:00,
2013-02-11 16:00:00,42.3,40.4,29.70,ESE,113,0.0,0.7,93,0.00,,,0.63,WUHU216HW,2013-02-11 21:00:00,
2013-02-11 16:05:00,42.5,40.6,29.71,ESE,113,0.0,0.7,93,0.00,,,0.63,WUHU216HW,2013-02-11 21:05:00,
2013-02-11 16:10:00,42.3,40.4,29.71,ESE,113,0.0,0.0,93,0.00,,,0.63,WUHU216HW,2013-02-11 21:10:00,
2013-02-11 16:15:00,42.3,40.4,29.71,ESE,113,0.0,0.0,93,0.00,,,0.63,WUHU216HW,2013-02-11 21:15:00,
2013-02-11 16:20:00,42.3,40.4,29.71,ESE,113,0.0,0.0,93,0.00,,,0.63,WUHU216HW,2013-02-11 21:20:00,
2013-02-11 16:25:00,42.3,40.4,29.70,ESE,113,0.0,0.0,93,0.00,,,0.63,WUHU216HW,2013-02-11 21:25:00,
2013-02-11 16:30:00,42.3,40.4,29.70,ESE,113,0.0,0.0,93,0.00,,,0.63,WUHU216HW,2013-02-11 21:30:00,
2013-02-11 16:35:00,42.3,40.4,29.70,ESE,113,0.0,0.0,93,0.00,,,0.63,WUHU216HW,2013-02-11 21:35:00,
2013-02-11 16:40:00,42.1,40.2,29.70,ESE,113,0.0,0.0,93,0.00,,,0.63,WUHU216HW,2013-02-11 21:40:00,
2013-02-11 16:45:00,42.1,40.2,29.69,ESE,113,0.0,0.7,93,0.00,,,0.63,WUHU216HW,2013-02-11 21:45:00,
2013-02-11 16:50:00,41.9,40.1,29.69,ESE,113,0.0,0.7,93,0.00,,,0.63,WUHU216HW,2013-02-11 21:50:00,
2013-02-11 16:55:00,41.9,40.1,29.69,ESE,113,0.0,0.2,93,0.00,,,0.63,WUHU216HW,2013-02-11 21:55:00,
2013-02-11 17:00:00,41.9,40.1,29.69,ESE,113,0.2,0.4,93,0.00,,,0.63,WUHU216HW,2013-02-11 22:00:00,
2013-02-11 17:05:00,41.9,40.1,29.69,ESE,113,0.0,0.4,93,0.00,,,0.63,WUHU216HW,2013-02-11 22:05:00,
2013-02-11 17:10:00,41.9,40.1,29.69,ESE,113,0.0,0.2,93,0.00,,,0.63,WUHU216HW,2013-02-11 22:10:00,
2013-02-11 17:15:00,41.9,40.1,29.69,ESE,113,0.0,0.2,93,0.01,,,0.63,WUHU216HW,2013-02-11 22:15:00,
2013-02-11 17:20:00,41.8,39.9,29.69,ESE,113,0.0,0.2,93,0.01,,,0.64,WUHU216HW,2013-02-11 22:20:00,
2013-02-11 17:25:00,41.8,39.9,29.69,ESE,113,0.0,0.0,93,0.01,,,0.64,WUHU216HW,2013-02-11 22:25:00,
2013-02-11 17:30:00,41.8,39.9,29.68,SE,135,0.0,0.2,93,0.01,,,0.64,WUHU216HW,2013-02-11 22:30:00,
2013-02-11 17:35:00,41.6,39.7,29.68,ESE,113,0.2,0.2,93,0.01,,,0.64,WUHU216HW,2013-02-11 22:35:00,
2013-02-11 17:40:00,41.6,39.7,29.68,SE,135,0.0,0.2,93,0.01,,,0.64,WUHU216HW,2013-02-11 22:40:00,
2013-02-11 17:45:00,41.4,39.5,29.68,SE,135,0.0,0.2,93,0.01,,,0.64,WUHU216HW,2013-02-11 22:45:00,
2013-02-11 17:50:00,41.4,39.5,29.68,SE,135,0.0,0.0,93,0.01,,,0.64,WUHU216HW,2013-02-11 22:50:00,
2013-02-11 17:55:00,41.4,39.5,29.67,SE,135,0.0,0.0,93,0.01,,,0.64,WUHU216HW,2013-02-11 22:55:00,
2013-02-11 18:00:00,41.4,39.5,29.67,SE,135,0.0,0.4,93,0.01,,,0.64,WUHU216HW,2013-02-11 23:00:00,
2013-02-11 18:06:00,41.4,39.5,29.67,SE,135,0.0,0.4,93,0.01,,,0.64,WUHU216HW,2013-02-11 23:06:00,
2013-02-11 18:11:00,41.4,39.5,29.67,SE,135,0.0,0.2,93,0.01,,,0.64,WUHU216HW,2013-02-11 23:11:00,
2013-02-11 18:15:00,41.4,39.5,29.67,ESE,113,0.0,0.4,93,0.00,,,0.64,WUHU216HW,2013-02-11 23:15:00,
2013-02-11 18:21:00,41.2,39.3,29.67,ESE,113,0.0,0.4,93,0.00,,,0.64,WUHU216HW,2013-02-11 23:21:00,
2013-02-11 18:26:00,41.2,39.3,29.67,ESE,113,0.0,0.0,93,0.00,,,0.64,WUHU216HW,2013-02-11 23:26:00,
2013-02-11 18:31:00,41.2,39.3,29.66,ESE,113,0.0,0.0,93,0.00,,,0.64,WUHU216HW,2013-02-11 23:31:00,
2013-02-11 18:36:00,41.2,39.3,29.66,ESE,113,0.0,0.0,93,0.00,,,0.64,WUHU216HW,2013-02-11 23:36:00,
2013-02-11 18:41:00,41.2,39.3,29.66,ESE,113,0.0,0.4,93,0.00,,,0.64,WUHU216HW,2013-02-11 23:41:00,
2013-02-11 18:46:00,41.2,39.3,29.66,ESE,113,0.0,0.4,93,0.00,,,0.64,WUHU216HW,2013-02-11 23:46:00,
2013-02-11 18:51:00,41.2,39.3,29.66,ESE,113,0.0,0.4,93,0.00,,,0.64,WUHU216HW,2013-02-11 23:51:00,
2013-02-11 18:56:00,41.0,39.2,29.65,ESE,113,0.0,0.4,93,0.00,,,0.64,WUHU216HW,2013-02-11 23:56:00,
2013-02-11 19:01:00,41.0,39.2,29.65,ESE,113,0.0,0.0,93,0.00,,,0.64,WUHU216HW,2013-02-12 00:01:00,
2013-02-11 19:06:00,41.0,39.2,29.65,ESE,113,0.0,0.4,93,0.00,,,0.64,WUHU216HW,2013-02-12 00:06:00,
2013-02-11 19:11:00,40.9,39.0,29.65,ESE,113,0.0,0.4,93,0.00,,,0.64,WUHU216HW,2013-02-12 00:11:00,
2013-02-11 19:16:00,40.9,39.0,29.65,ESE,113,0.0,0.4,93,0.00,,,0.64,WUHU216HW,2013-02-12 00:16:00,
2013-02-11 19:21:00,40.9,39.0,29.65,ESE,113,0.0,0.0,93,0.00,,,0.64,WUHU216HW,2013-02-12 00:21:00,
2013-02-11 19:26:00,40.9,39.0,29.65,ESE,113,0.0,0.0,93,0.00,,,0.64,WUHU216HW,2013-02-12 00:26:00,
2013-02-11 19:31:00,40.9,39.0,29.66,ESE,113,0.0,0.4,93,0.00,,,0.64,WUHU216HW,2013-02-12 00:31:00,
2013-02-11 19:36:00,40.7,38.8,29.66,ESE,113,0.0,0.4,93,0.00,,,0.64,WUHU216HW,2013-02-12 00:36:00,
2013-02-11 19:41:00,40.7,38.8,29.66,ESE,113,0.0,0.2,93,0.00,,,0.64,WUHU216HW,2013-02-12 00:41:00,
2013-02-11 19:46:00,40.9,39.0,29.66,ESE,113,0.0,0.0,93,0.00,,,0.64,WUHU216HW,2013-02-12 00:46:00,
2013-02-11 19:51:00,40.9,39.0,29.65,ESE,113,0.0,0.0,93,0.00,,,0.64,WUHU216HW,2013-02-12 00:51:00,
2013-02-11 19:56:00,40.9,39.0,29.65,ESE,113,0.0,0.0,93,0.00,,,0.64,WUHU216HW,2013-02-12 00:56:00,
2013-02-11 20:01:00,40.9,39.0,29.64,ESE,113,0.0,0.0,93,0.00,,,0.64,WUHU216HW,2013-02-12 01:01:00,
2013-02-11 20:06:00,40.9,39.0,29.64,ESE,113,0.0,0.0,93,0.00,,,0.64,WUHU216HW,2013-02-12 01:06:00,
2013-02-11 20:11:00,40.7,38.8,29.64,ESE,113,0.0,0.7,93,0.00,,,0.64,WUHU216HW,2013-02-12 01:11:00,
2013-02-11 20:16:00,40.7,38.8,29.64,ESE,113,0.0,0.7,93,0.00,,,0.64,WUHU216HW,2013-02-12 01:16:00,
2013-02-11 20:21:00,40.7,38.8,29.64,ESE,113,0.0,0.0,93,0.00,,,0.64,WUHU216HW,2013-02-12 01:21:00,
2013-02-11 20:26:00,40.7,38.8,29.64,ESE,113,0.0,0.0,93,0.00,,,0.64,WUHU216HW,2013-02-12 01:26:00,
2013-02-11 20:31:00,40.7,38.8,29.64,ESE,113,0.0,0.0,93,0.00,,,0.64,WUHU216HW,2013-02-12 01:31:00,
2013-02-11 20:36:00,40.7,38.8,29.64,ESE,113,0.0,0.0,93,0.00,,,0.64,WUHU216HW,2013-02-12 01:36:00,
2013-02-11 20:41:00,40.7,38.8,29.64,ESE,113,0.0,0.0,93,0.00,,,0.64,WUHU216HW,2013-02-12 01:41:00,
2013-02-11 20:46:00,40.7,38.8,29.64,ESE,113,0.0,0.0,93,0.00,,,0.64,WUHU216HW,2013-02-12 01:46:00,
2013-02-11 20:51:00,40.7,38.8,29.64,ESE,113,0.0,0.0,93,0.00,,,0.64,WUHU216HW,2013-02-12 01:51:00,
2013-02-11 20:56:00,40.7,38.8,29.64,ESE,113,0.0,0.0,93,0.00,,,0.64,WUHU216HW,2013-02-12 01:56:00,
2013-02-11 21:01:00,40.5,38.6,29.64,ESE,113,0.0,0.0,93,0.00,,,0.64,WUHU216HW,2013-02-12 02:01:00,
2013-02-11 21:06:00,40.5,38.6,29.64,ESE,113,0.0,0.0,93,0.00,,,0.64,WUHU216HW,2013-02-12 02:06:00,
2013-02-11 21:11:00,40.5,38.6,29.64,ESE,113,0.0,0.0,93,0.00,,,0.64,WUHU216HW,2013-02-12 02:11:00,
2013-02-11 21:16:00,40.3,38.4,29.64,ESE,113,0.0,0.0,93,0.00,,,0.64,WUHU216HW,2013-02-12 02:16:00,
2013-02-11 21:21:00,40.5,38.6,29.64,ESE,113,0.0,0.0,93,0.00,,,0.64,WUHU216HW,2013-02-12 02:21:00,
2013-02-11 21:26:00,40.5,38.6,29.64,ESE,113,0.0,0.0,93,0.00,,,0.64,WUHU216HW,2013-02-12 02:26:00,
2013-02-11 21:31:00,40.3,38.4,29.64,ESE,113,0.0,0.0,93,0.00,,,0.64,WUHU216HW,2013-02-12 02:31:00,
2013-02-11 21:36:00,40.3,38.4,29.64,SE,135,0.0,0.0,93,0.00,,,0.64,WUHU216HW,2013-02-12 02:36:00,
2013-02-11 21:41:00,40.3,38.4,29.64,SE,135,0.0,0.0,93,0.00,,,0.64,WUHU216HW,2013-02-12 02:41:00,
2013-02-11 21:46:00,40.3,38.4,29.64,SE,135,0.0,0.0,93,0.00,,,0.64,WUHU216HW,2013-02-12 02:46:00,
2013-02-11 21:51:00,40.3,38.4,29.64,SE,135,0.0,0.0,93,0.00,,,0.64,WUHU216HW,2013-02-12 02:51:00,
2013-02-11 21:56:00,40.3,38.4,29.65,East,90,0.4,0.9,93,0.00,,,0.64,WUHU216HW,2013-02-12 02:56:00,
2013-02-11 22:01:00,40.3,38.4,29.67,NW,315,0.9,1.1,93,0.00,,,0.64,WUHU216HW,2013-02-12 03:01:00,
2013-02-11 22:06:00,40.7,39.1,29.66,WSW,248,0.2,1.1,94,0.01,,,0.65,WUHU216HW,2013-02-12 03:06:00,
2013-02-11 22:11:00,41.0,39.4,29.66,SSW,203,0.4,1.8,94,0.01,,,0.65,WUHU216HW,2013-02-12 03:11:00,
2013-02-11 22:16:00,41.4,39.8,29.67,NW,315,1.1,2.5,94,0.01,,,0.65,WUHU216HW,2013-02-12 03:16:00,
2013-02-11 22:21:00,42.1,40.5,29.67,NNW,338,1.8,2.9,94,0.01,,,0.65,WUHU216HW,2013-02-12 03:21:00,
2013-02-11 22:26:00,42.3,40.7,29.67,SW,225,1.1,2.9,94,0.01,,,0.65,WUHU216HW,2013-02-12 03:26:00,
2013-02-11 22:31:00,42.5,40.9,29.67,NW,315,0.4,3.6,94,0.01,,,0.65,WUHU216HW,2013-02-12 03:31:00,
2013-02-11 22:36:00,42.5,40.9,29.67,West,270,0.4,3.6,94,0.01,,,0.65,WUHU216HW,2013-02-12 03:36:00,
2013-02-11 22:41:00,42.5,40.9,29.67,NNW,338,0.4,2.0,94,0.01,,,0.65,WUHU216HW,2013-02-12 03:41:00,
2013-02-11 22:46:00,42.5,40.9,29.67,WSW,248,0.0,1.6,94,0.01,,,0.65,WUHU216HW,2013-02-12 03:46:00,
2013-02-11 22:51:00,42.3,40.7,29.67,NNE,23,0.0,1.8,94,0.01,,,0.65,WUHU216HW,2013-02-12 03:51:00,
2013-02-11 22:56:00,42.3,40.7,29.67,SSW,203,0.2,1.8,94,0.01,,,0.65,WUHU216HW,2013-02-12 03:56:00,
2013-02-11 23:01:00,42.1,40.5,29.67,NNW,338,1.1,1.1,94,0.00,,,0.65,WUHU216HW,2013-02-12 04:01:00,
2013-02-11 23:06:00,42.1,40.5,29.67,SW,225,1.1,1.8,94,0.00,,,0.65,WUHU216HW,2013-02-12 04:06:00,
2013-02-11 23:11:00,42.1,40.5,29.67,NW,315,2.5,3.6,94,0.00,,,0.65,WUHU216HW,2013-02-12 04:11:00,
2013-02-11 23:16:00,42.1,40.5,29.68,WSW,248,1.3,3.6,94,0.00,,,0.65,WUHU216HW,2013-02-12 04:16:00,
2013-02-11 23:21:00,42.1,40.5,29.68,West,270,2.9,2.9,94,0.00,,,0.65,WUHU216HW,2013-02-12 04:21:00,
2013-02-11 23:26:00,42.1,40.5,29.69,North,0,0.2,2.9,94,0.00,,,0.65,WUHU216HW,2013-02-12 04:26:00,
2013-02-11 23:31:00,41.9,40.3,29.69,SSW,203,1.1,2.9,94,0.00,,,0.65,WUHU216HW,2013-02-12 04:31:00,
2013-02-11 23:36:00,41.9,40.3,29.69,ESE,113,1.1,2.7,94,0.00,,,0.65,WUHU216HW,2013-02-12 04:36:00,
2013-02-11 23:41:00,41.8,40.1,29.69,NNE,23,0.4,3.6,94,0.00,,,0.65,WUHU216HW,2013-02-12 04:41:00,
2013-02-11 23:46:00,41.8,40.1,29.69,WSW,248,2.2,3.6,94,0.00,,,0.65,WUHU216HW,2013-02-12 04:46:00,
2013-02-11 23:51:00,41.4,39.5,29.69,WSW,248,0.0,2.2,93,0.00,,,0.65,WUHU216HW,2013-02-12 04:51:00,
2013-02-11 23:56:00,41.4,39.5,29.69,WSW,248,0.0,2.2,93,0.00,,,0.65,WUHU216HW,2013-02-12 04:56:00,